Weather reports worldwide

Advertisment
Sevilla/San Pablo, Spain (8391): temperature & dewpoint: 10.06.2019 13:00:00 - 16.06.2019 13:00:00 (CEST)Sevilla/San Pablo, Spain (8391): wind speed: 10.06.2019 13:00:00 - 16.06.2019 13:00:00 (CEST)Sevilla/San Pablo, Spain (8391): wind direction: 10.06.2019 13:00:00 - 16.06.2019 13:00:00 (CEST)Sevilla/San Pablo, Spain (8391): reduced air pressure: 10.06.2019 13:00:00 - 16.06.2019 13:00:00 (CEST)Sevilla/San Pablo, Spain (8391): visibility: 10.06.2019 13:00:00 - 16.06.2019 13:00:00 (CEST)
Date & Time tt [°C] td [°C] ff [km/h] ff [kn] dd ppp [hPa] vv [km]
16.06.2019 13:00:00 25,0 11,2 11 6 SW 1017,8 -
16.06.2019 12:00:00 24,1 10,7 4 2 W 1017,4 -
16.06.2019 11:00:00 23,1 11,2 4 2 ENE 1017,5 30
16.06.2019 10:00:00 21,5 11,5 2 1 SE 1017,8 -
16.06.2019 09:00:00 18,5 11,3 4 2 E 1017,0 -
16.06.2019 08:00:00 16,1 11,0 4 2 E 1016,7 30
16.06.2019 07:00:00 14,9 10,8 2 1 ESE 1016,4 -
16.06.2019 06:00:00 14,5 10,5 4 2 E 1015,9 -
16.06.2019 05:00:00 15,0 10,8 5 3 ESE 1016,0 30
16.06.2019 04:00:00 15,9 10,9 0 0 N 1016,2 -
16.06.2019 03:00:00 16,5 10,9 4 2 SE 1016,5 -
16.06.2019 02:00:00 17,4 11,4 13 7 S 1016,7 30
16.06.2019 01:00:00 18,4 10,2 9 5 SSE 1017,2 -
16.06.2019 00:00:00 20,5 10,0 11 6 S 1017,2 -
15.06.2019 23:00:00 22,2 9,5 13 7 SSW 1017,1 30
15.06.2019 22:00:00 23,9 10,0 16 9 SSW 1016,6 -
15.06.2019 21:00:00 26,2 9,4 16 9 SW 1016,0 -
15.06.2019 20:00:00 29,7 7,0 15 8 SW 1015,8 30
15.06.2019 19:00:00 30,5 5,7 8 4 WSW 1016,0 -
15.06.2019 18:00:00 29,5 6,2 5 3 NE 1016,7 -
15.06.2019 17:00:00 28,5 6,6 9 5 NNW 1017,3 30
15.06.2019 16:00:00 28,0 6,4 9 5 NW 1018,0 -
15.06.2019 15:00:00 26,6 6,2 8 4 WNW 1018,7 -
15.06.2019 14:00:00 25,8 6,0 11 6 W 1019,4 30
15.06.2019 13:00:00 24,4 5,7 5 3 NE 1019,9 -
15.06.2019 12:00:00 23,1 7,3 8 4 N 1020,1 -
15.06.2019 11:00:00 22,1 8,5 9 5 NNE 1020,2 30
15.06.2019 10:00:00 20,3 8,6 11 6 ENE 1020,5 -
15.06.2019 09:00:00 17,9 9,0 13 7 NNE 1020,4 -
15.06.2019 08:00:00 15,7 10,3 0 0 N 1020,1 30
15.06.2019 07:00:00 13,0 10,0 4 2 NE 1019,8 -
15.06.2019 06:00:00 12,8 10,0 4 2 E 1019,4 -
15.06.2019 05:00:00 13,1 9,9 4 2 SSE 1019,2 30
15.06.2019 04:00:00 14,0 10,4 8 4 SSE 1019,1 -
15.06.2019 03:00:00 15,6 11,0 4 2 SSW 1019,3 -
15.06.2019 02:00:00 16,4 11,3 9 5 SSW 1019,3 30
15.06.2019 01:00:00 16,9 10,7 11 6 SSW 1019,6 -
15.06.2019 00:00:00 17,8 9,9 11 6 SSW 1019,5 -
14.06.2019 23:00:00 18,7 8,4 16 9 SW 1019,0 30
14.06.2019 22:00:00 19,5 8,5 21 11 SW 1018,2 -
14.06.2019 21:00:00 21,6 7,8 24 13 WSW 1017,5 -
14.06.2019 20:00:00 22,3 7,7 31 17 SW 1016,6 30
14.06.2019 19:00:00 23,4 8,3 31 17 SW 1016,1 -
14.06.2019 18:00:00 25,9 7,8 18 10 WSW 1016,0 -
14.06.2019 17:00:00 26,3 4,7 22 12 WSW 1015,9 30
14.06.2019 16:00:00 25,6 4,8 24 13 W 1016,1 -
14.06.2019 15:00:00 24,7 3,9 21 11 WSW 1016,3 -
14.06.2019 14:00:00 23,8 4,2 21 11 W 1016,9 30
14.06.2019 13:00:00 23,1 4,7 24 13 WSW 1016,8 -
14.06.2019 12:00:00 21,8 7,1 18 10 SW 1016,5 -
14.06.2019 11:00:00 20,3 8,3 18 10 SW 1016,2 30
14.06.2019 10:00:00 18,6 9,0 13 7 SSW 1015,5 -
14.06.2019 09:00:00 17,7 8,9 11 6 SW 1014,7 -
14.06.2019 08:00:00 16,7 12,6 15 8 S 1014,0 30
14.06.2019 07:00:00 16,1 12,5 15 8 S 1013,6 -
14.06.2019 06:00:00 17,3 13,8 11 6 S 1012,8 -
14.06.2019 05:00:00 17,9 13,8 11 6 S 1012,6 30
14.06.2019 04:00:00 18,3 12,7 8 4 SSW 1012,5 -
14.06.2019 03:00:00 19,1 11,6 15 8 SSW 1012,5 -
14.06.2019 02:00:00 19,5 11,5 13 7 SSW 1012,7 -
14.06.2019 01:00:00 20,2 10,3 16 9 SW 1012,3 -
14.06.2019 00:00:00 22,3 5,2 16 9 SSW 1012,1 -
13.06.2019 23:00:00 23,3 2,7 21 11 W 1010,8 30
13.06.2019 22:00:00 25,1 5,3 22 12 W 1009,9 -
13.06.2019 21:00:00 27,7 4,8 22 12 WSW 1009,1 -
13.06.2019 20:00:00 28,2 3,1 24 13 W 1008,5 30
13.06.2019 19:00:00 28,5 3,3 18 10 WSW 1008,0 -
13.06.2019 18:00:00 30,1 7,3 18 10 SW 1007,9 -
13.06.2019 17:00:00 29,9 7,1 15 8 SW 1008,4 30
13.06.2019 16:00:00 29,1 8,7 15 8 SSW 1008,7 -
13.06.2019 15:00:00 28,2 9,1 15 8 SW 1009,4 -
13.06.2019 14:00:00 26,8 10,6 16 9 SW 1010,0 30
13.06.2019 13:00:00 25,9 10,4 16 9 SW 1010,4 -
13.06.2019 12:00:00 24,3 11,2 16 9 SSW 1010,7 -
13.06.2019 11:00:00 23,7 9,7 9 5 SW 1010,8 30
13.06.2019 10:00:00 22,2 10,3 5 3 SSE 1010,9 -
13.06.2019 09:00:00 19,4 15,2 5 3 SSE 1010,6 -
13.06.2019 08:00:00 16,8 15,1 8 4 SE 1010,4 25
13.06.2019 07:00:00 16,0 13,8 5 3 ENE 1010,0 -
13.06.2019 06:00:00 16,4 13,3 2 1 N 1010,0 -
13.06.2019 05:00:00 18,1 15,7 9 5 SW 1009,9 30
13.06.2019 04:00:00 18,7 16,7 13 7 SW 1010,1 -
13.06.2019 03:00:00 18,9 16,5 11 6 SSW 1010,2 -
13.06.2019 02:00:00 19,1 16,1 16 9 SW 1010,4 30
13.06.2019 01:00:00 19,8 14,7 13 7 SSW 1010,2 -
13.06.2019 00:00:00 20,8 14,2 18 10 SSW 1010,2 -
12.06.2019 23:00:00 22,8 13,3 11 6 WSW 1009,6 30
12.06.2019 22:00:00 24,7 12,0 22 12 WSW 1008,8 -
12.06.2019 21:00:00 26,8 11,7 24 13 SW 1008,2 -
12.06.2019 20:00:00 30,3 6,9 13 7 SW 1007,9 30
12.06.2019 19:00:00 30,7 6,5 8 4 W 1008,1 -
12.06.2019 18:00:00 30,6 6,5 8 4 S 1008,7 -
12.06.2019 17:00:00 29,8 7,7 9 5 N 1009,2 30
12.06.2019 16:00:00 29,8 8,2 11 6 S 1009,7 -
12.06.2019 15:00:00 28,1 10,2 11 6 WSW 1010,4 -
12.06.2019 14:00:00 27,8 9,7 9 5 W 1011,3 30
12.06.2019 13:00:00 25,7 12,5 11 6 WNW 1012,0 -
12.06.2019 12:00:00 24,2 13,4 9 5 W 1012,4 -
12.06.2019 11:00:00 22,4 13,7 8 4 W 1012,5 30
12.06.2019 10:00:00 20,6 14,3 8 4 WNW 1012,3 -
12.06.2019 09:00:00 19,3 13,2 0 0 N 1012,3 -
12.06.2019 08:00:00 16,9 13,0 0 0 N 1011,9 30
12.06.2019 07:00:00 14,3 12,3 4 2 E 1011,5 -
12.06.2019 06:00:00 14,1 12,0 8 4 SE 1011,0 -
12.06.2019 05:00:00 14,8 12,3 8 4 SE 1010,7 30
12.06.2019 04:00:00 15,8 12,7 5 3 SE 1010,5 -
12.06.2019 03:00:00 18,0 13,7 5 3 S 1010,4 -
12.06.2019 02:00:00 18,3 13,2 8 4 SSW 1010,9 30
12.06.2019 01:00:00 19,3 13,0 15 8 SSW 1011,2 -
12.06.2019 00:00:00 20,2 13,9 13 7 S 1011,3 -
11.06.2019 23:00:00 21,5 13,4 13 7 SSW 1010,8 30
11.06.2019 22:00:00 22,7 13,4 13 7 SSW 1010,4 -
11.06.2019 21:00:00 24,4 13,2 18 10 SW 1009,9 -
11.06.2019 20:00:00 26,0 13,1 18 10 SSW 1009,6 30
11.06.2019 19:00:00 26,8 12,4 24 13 SW 1009,6 -
11.06.2019 18:00:00 27,4 10,6 28 15 SW 1009,8 -
11.06.2019 17:00:00 29,4 8,4 18 10 SSW 1009,7 30
11.06.2019 16:00:00 28,7 7,7 13 7 SSW 1010,3 -
11.06.2019 15:00:00 27,9 7,2 13 7 SW 1010,8 -
11.06.2019 14:00:00 26,4 6,9 8 4 N 1011,4 30
11.06.2019 13:00:00 25,0 6,4 9 5 WSW 1012,1 -
11.06.2019 12:00:00 23,3 5,7 9 5 WNW 1012,7 -
11.06.2019 11:00:00 21,3 6,1 8 4 WNW 1012,9 30
11.06.2019 10:00:00 20,0 6,3 5 3 WNW 1012,8 -
11.06.2019 09:00:00 17,7 6,8 9 5 NNW 1012,9 -
11.06.2019 08:00:00 14,9 11,3 8 4 N 1012,9 30
11.06.2019 07:00:00 13,9 8,5 11 6 WNW 1012,7 -
11.06.2019 06:00:00 14,4 12,1 4 2 SW 1012,7 -
11.06.2019 05:00:00 15,2 12,3 4 2 W 1013,2 30
11.06.2019 04:00:00 15,3 12,2 4 2 S 1013,4 -
11.06.2019 03:00:00 15,3 11,9 5 3 SSE 1014,0 -
11.06.2019 02:00:00 16,9 12,0 4 2 S 1014,7 30
11.06.2019 01:00:00 17,9 12,3 9 5 S 1015,1 -
11.06.2019 00:00:00 18,7 12,1 13 7 SSW 1015,2 -
10.06.2019 23:00:00 19,2 12,0 18 10 SW 1015,2 30
10.06.2019 22:00:00 20,0 11,5 24 13 SW 1014,7 -
10.06.2019 21:00:00 21,7 11,1 29 16 SW 1014,5 -
10.06.2019 20:00:00 24,0 10,3 31 17 SW 1014,1 30
10.06.2019 19:00:00 25,7 10,2 29 16 SW 1014,0 -
10.06.2019 18:00:00 26,8 9,2 34 18 SW 1014,2 -
10.06.2019 17:00:00 28,2 9,0 31 17 SW 1014,6 30
10.06.2019 16:00:00 29,2 4,6 11 6 SSW 1014,9 -
10.06.2019 15:00:00 28,4 4,4 16 9 WSW 1015,8 -
10.06.2019 14:00:00 27,2 5,0 8 4 WNW 1016,6 30
10.06.2019 13:00:00 25,9 4,9 13 7 SW 1017,2 -

tt = temperature
td = dewpoint
ff = wind speed
dd = wind direction
ppp = reduced air pressure
vv = visibility

Next stations